Weather History for Somerset, KY

Change the Weather History Date:

Thursday, February 21, 2013

  Actual Average Record
Temperature  
Mean Temperature 32 °F -  
Max Temperature 44 °F 51 °F 71 °F (1997)
Min Temperature 21 °F 31 °F 19 °F (1999)
Degree Days  
Heating Degree Days 32    
Moisture  
Dew Point 18 °F    
Average Humidity 57    
Maximum Humidity 93    
Minimum Humidity 29    
Precipitation  
Precipitation 0.39 in - - ()
Sea Level Pressure  
Sea Level Pressure 30.18 in    
Wind  
Wind Speed 5 mph (ENE)    
Max Wind Speed 13 mph    
Max Gust Speed 16 mph    
Visibility 9 miles    
Events Rain , Snow    
Averages and records for this station are not official NWS values.
T = Trace of Precipitation, MM = Missing Value Source: NWS Daily Summary

Daily Weather History Graph

Daily Weather History Graph

Search for Another Location

Airport:

Trip Planner

Search our weather history database for the weather conditions in past years. The results will help you decide how hot, cold, wet, or windy it might be!

Date:

Astronomy

Feb. 21, 2013 Rise Set
Actual Time 7:19 AM EST 6:24 PM EST
Civil Twilight 6:53 AM EST 6:51 PM EST
Nautical Twilight 6:23 AM EST 7:21 PM EST
Astronomical Twilight 5:52 AM EST 7:51 PM EST
Moon 2:42 PM EST (2/21) 4:19 AM EST (2/21)
Length of Visible Light 11h 58m
Length of Day
11h 05m
Waxing Gibbous, 83% of the Moon is Illuminated
Feb 21
Waxing Gibbous
Feb 25
Full
Mar 4
Last Quarter
Mar 11
New
Mar 19
First Quarter

Hourly Weather History & Observations

Time (EST) Temp. Windchill Dew Point Humidity Pressure Visibility Wind Dir Wind Speed Gust Speed Precip Events Conditions
12:15 AM 28.4 °F 24.6 °F 14.0 °F 55% 30.25 in 10.0 mi NNE 3.5 mph - N/A   Clear
12:35 AM 28.4 °F 24.6 °F 14.0 °F 55% 30.26 in 10.0 mi North 3.5 mph - N/A   Clear
12:55 AM 26.6 °F 22.6 °F 14.0 °F 59% 30.26 in 10.0 mi NNE 3.5 mph - N/A   Clear
1:15 AM 26.6 °F 22.6 °F 14.0 °F 59% 30.26 in 10.0 mi North 3.5 mph - N/A   Clear
1:35 AM 26.6 °F 22.6 °F 14.0 °F 59% 30.26 in 10.0 mi NNE 3.5 mph - N/A   Clear
1:55 AM 26.6 °F 21.2 °F 14.0 °F 59% 30.26 in 10.0 mi NNE 4.6 mph - N/A   Clear
2:15 AM 26.6 °F 22.6 °F 14.0 °F 59% 30.27 in 10.0 mi NNE 3.5 mph - N/A   Clear
2:35 AM 26.6 °F 20.0 °F 14.0 °F 59% 30.27 in 10.0 mi NNE 5.8 mph - N/A   Clear
2:55 AM 24.8 °F 17.9 °F 14.0 °F 64% 30.26 in 10.0 mi NE 5.8 mph - N/A   Clear
3:15 AM 23.0 °F 14.7 °F 14.0 °F 68% 30.25 in 10.0 mi NE 6.9 mph - N/A   Clear
3:35 AM 23.0 °F 15.8 °F 14.0 °F 68% 30.25 in 10.0 mi NE 5.8 mph - N/A   Clear
3:55 AM 23.0 °F 14.7 °F 14.0 °F 68% 30.25 in 10.0 mi NE 6.9 mph - N/A   Clear
4:15 AM 23.0 °F 18.4 °F 14.0 °F 68% 30.25 in 10.0 mi NE 3.5 mph - N/A   Clear
4:35 AM 23.0 °F 17.0 °F 14.0 °F 68% 30.25 in 10.0 mi NE 4.6 mph - N/A   Clear
4:55 AM 23.0 °F 17.0 °F 14.0 °F 68% 30.26 in 10.0 mi NE 4.6 mph - N/A   Clear
5:15 AM 21.2 °F 14.9 °F 14.0 °F 74% 30.26 in 10.0 mi NE 4.6 mph - N/A   Clear
5:35 AM 23.0 °F 14.7 °F 14.0 °F 68% 30.26 in 10.0 mi NE 6.9 mph - N/A   Clear
5:55 AM 23.0 °F 15.8 °F 14.0 °F 68% 30.26 in 10.0 mi NE 5.8 mph - N/A   Clear
6:15 AM 23.0 °F 17.0 °F 14.0 °F 68% 30.27 in 10.0 mi North 4.6 mph - N/A   Clear
7:15 AM 23.0 °F - 14.0 °F 68% 30.28 in 10.0 mi Calm Calm - N/A   Clear
7:35 AM 23.0 °F - 14.0 °F 68% 30.29 in 10.0 mi Calm Calm - N/A   Clear
7:55 AM 23.0 °F 18.4 °F 15.8 °F 74% 30.30 in 10.0 mi NE 3.5 mph - N/A   Clear
8:15 AM 24.8 °F 19.1 °F 15.8 °F 69% 30.29 in 10.0 mi NE 4.6 mph - N/A   Clear
8:35 AM 26.6 °F 21.2 °F 15.8 °F 64% 30.30 in 10.0 mi East 4.6 mph - N/A   Clear
8:55 AM 26.6 °F 22.6 °F 15.8 °F 64% 30.30 in 10.0 mi East 3.5 mph - N/A   Clear
9:15 AM 26.6 °F 21.2 °F 15.8 °F 64% 30.29 in 10.0 mi East 4.6 mph - N/A   Clear
9:35 AM 28.4 °F 23.3 °F 17.6 °F 64% 30.28 in 10.0 mi East 4.6 mph - N/A   Clear
9:55 AM 30.2 °F 23.4 °F 17.6 °F 60% 30.27 in 10.0 mi East 6.9 mph - N/A   Clear
10:15 AM 30.2 °F 21.3 °F 15.8 °F 55% 30.26 in 10.0 mi East 10.4 mph - N/A   Clear
10:35 AM 32.0 °F 24.8 °F 17.6 °F 55% 30.25 in 10.0 mi East 8.1 mph - N/A   Clear
10:55 AM 32.0 °F 24.8 °F 17.6 °F 55% 30.24 in 10.0 mi ENE 8.1 mph - N/A   Clear
11:15 AM 33.8 °F 27.7 °F 15.8 °F 48% 30.24 in 10.0 mi East 6.9 mph - N/A   Clear
11:35 AM 35.6 °F 31.7 °F 15.8 °F 44% 30.23 in 10.0 mi East 4.6 mph - N/A   Clear
11:55 AM 35.6 °F 30.7 °F 14.0 °F 41% 30.24 in 10.0 mi East 5.8 mph - N/A   Clear
12:15 PM 37.4 °F 31.4 °F 14.0 °F 38% 30.23 in 10.0 mi East 8.1 mph - N/A   Clear
12:35 PM 39.2 °F 35.0 °F 14.0 °F 36% 30.20 in 10.0 mi East 5.8 mph - N/A   Clear
12:55 PM 41.0 °F 35.2 °F 14.0 °F 33% 30.17 in 10.0 mi East 9.2 mph - N/A   Clear
1:15 PM 42.8 °F 38.0 °F 14.0 °F 31% 30.17 in 10.0 mi East 8.1 mph - N/A   Clear
1:35 PM 42.8 °F 38.6 °F 14.0 °F 31% 30.16 in 10.0 mi East 6.9 mph - N/A   Clear
1:55 PM 42.8 °F 38.0 °F 14.0 °F 31% 30.14 in 10.0 mi East 8.1 mph - N/A   Clear
2:15 PM 42.8 °F 37.0 °F 14.0 °F 31% 30.13 in 10.0 mi East 10.4 mph - N/A   Clear
2:35 PM 42.8 °F 39.3 °F 14.0 °F 31% 30.14 in 10.0 mi ESE 5.8 mph - N/A   Clear
2:55 PM 44.6 °F 39.7 °F 14.0 °F 29% 30.11 in 10.0 mi East 9.2 mph - N/A   Clear
3:15 PM 42.8 °F 38.0 °F 14.0 °F 31% 30.10 in 10.0 mi East 8.1 mph - N/A   Clear
3:35 PM 44.6 °F 40.7 °F 14.0 °F 29% 30.10 in 10.0 mi ESE 6.9 mph - N/A   Clear
3:55 PM 44.6 °F 39.7 °F 15.8 °F 31% 30.10 in 10.0 mi East 9.2 mph - N/A   Clear
4:15 PM 42.8 °F 36.2 °F 15.8 °F 34% 30.07 in 10.0 mi East 12.7 mph - N/A   Clear
4:35 PM 42.8 °F 37.0 °F 14.0 °F 31% 30.05 in 10.0 mi East 10.4 mph 16.1 mph N/A   Clear
4:55 PM 42.8 °F 38.0 °F 14.0 °F 31% 30.05 in 10.0 mi East 8.1 mph - N/A   Clear
5:15 PM 42.8 °F 38.0 °F 15.8 °F 34% 30.04 in 10.0 mi East 8.1 mph - N/A   Clear
5:35 PM 42.8 °F 38.0 °F 14.0 °F 31% 30.05 in 10.0 mi East 8.1 mph - N/A   Clear
5:55 PM 42.8 °F 38.0 °F 14.0 °F 31% 30.05 in 10.0 mi East 8.1 mph - N/A   Clear
6:15 PM 42.8 °F 38.6 °F 14.0 °F 31% 30.03 in 10.0 mi East 6.9 mph - N/A   Scattered Clouds
6:35 PM 42.8 °F 40.1 °F 14.0 °F 31% 30.05 in 10.0 mi East 4.6 mph - N/A   Mostly Cloudy
6:55 PM 42.8 °F 41.1 °F 15.8 °F 34% 30.06 in 10.0 mi ENE 3.5 mph - N/A   Mostly Cloudy
7:15 PM 42.8 °F 41.1 °F 17.6 °F 36% 30.11 in 10.0 mi WNW 3.5 mph - N/A Rain Rain
7:35 PM 37.4 °F 30.8 °F 26.6 °F 65% 30.09 in 10.0 mi NE 9.2 mph - N/A Rain Light Rain
7:55 PM 37.4 °F 34.9 °F 28.4 °F 70% 30.11 in 7.0 mi NNE 3.5 mph - 0.01 in Rain Rain
8:15 PM 35.6 °F 30.7 °F 30.2 °F 81% 30.10 in 5.0 mi ENE 5.8 mph - 0.02 in Rain Rain
8:35 PM 35.6 °F 28.6 °F 30.2 °F 81% 30.08 in 10.0 mi ENE 9.2 mph - 0.02 in Rain Rain
8:55 PM 35.6 °F 30.7 °F 30.2 °F 81% 30.07 in 10.0 mi ENE 5.8 mph - 0.02 in   Light Drizzle
9:15 PM 35.6 °F 29.9 °F 28.4 °F 75% 30.07 in 10.0 mi ENE 6.9 mph - N/A Rain Rain
9:35 PM 35.6 °F 30.7 °F 28.4 °F 75% 30.09 in 10.0 mi ENE 5.8 mph - N/A Rain Light Rain
9:55 PM 33.8 °F 28.6 °F 30.2 °F 87% 30.09 in 3.0 mi East 5.8 mph - 0.05 in Rain Light Rain
10:15 PM 33.8 °F 28.6 °F 30.2 °F 87% 30.09 in 2.0 mi SE 5.8 mph - 0.10 in Snow Light Snow
10:35 PM 33.8 °F 29.6 °F 30.2 °F 87% 30.07 in 4.0 mi SSE 4.6 mph - 0.14 in Rain Rain
10:55 PM 33.8 °F - 32.0 °F 93% 30.05 in 5.0 mi Calm Calm - 0.17 in Rain Light Rain
11:15 PM 33.8 °F - 32.0 °F 93% 30.08 in 3.0 mi Calm Calm - 0.03 in Rain Light Rain
11:35 PM 33.8 °F 27.0 °F 32.0 °F 93% 30.04 in 3.0 mi East 8.1 mph - 0.12 in Snow Light Snow
11:55 PM 33.8 °F 26.4 °F 32.0 °F 93% 30.02 in 10.0 mi East 9.2 mph - 0.14 in Rain Light Rain